Weather History for KCMA - September, 2013

Change the Weather History Date:

Monday, September 23, 2013

  Actual Average Record
Temperature  
Mean Temperature 70 °F 66 °F  
Max Temperature 85 °F 76 °F 96 °F (1968)
Min Temperature 54 °F 56 °F 47 °F (1954)
Degree Days  
Heating Degree Days 0 1  
Month to date heating degree days 0 5  
Since 1 July heating degree days 3 20  
Cooling Degree Days 5 2  
Month to date cooling degree days 105 59  
Year to date cooling degree days 574 271  
Growing Degree Days 19 (Base 50)    
Moisture  
Dew Point 48 °F    
Average Humidity 52    
Maximum Humidity 80    
Minimum Humidity 23    
Precipitation  
Precipitation 0.00 in 0.00 in 0.08 in (1986)
Month to date precipitation 0.00 0.11  
Year to date precipitation 2.19 11.15  
Since 1 July precipitation 0.04 0.17  
Sea Level Pressure  
Sea Level Pressure 29.87 in    
Wind  
Wind Speed 3 mph (WSW)    
Max Wind Speed 12 mph    
Max Gust Speed 15 mph    
Visibility 10 miles    
Events      
T = Trace of Precipitation, MM = Missing Value Source: NWS Daily Summary

Daily Weather History Graph

Daily Weather History Graph

Search for Another Location

Airport or City:

Trip Planner

Search our weather history database for the weather conditions in past years. The results will help you decide how hot, cold, wet, or windy it might be!

Date:

Astronomy

Sep. 23, 2013 Rise Set
Actual Time 6:45 AM PDT 6:51 PM PDT
Civil Twilight 6:20 AM PDT 7:16 PM PDT
Nautical Twilight 5:51 AM PDT 7:45 PM PDT
Astronomical Twilight 5:21 AM PDT 8:14 PM PDT
Moon 9:39 PM PDT (9/23) 10:56 AM PDT (9/23)
Length of Visible Light 12h 55m
Length of Day
12h 05m
Waning Gibbous, 80% of the Moon is Illuminated
Sep 23
Waning Gibbous
Sep 26
Last Quarter
Oct 4
New
Oct 11
First Quarter
Oct 18
Full

Hourly Weather History & Observations

Time (PDT) Temp. Dew Point Humidity Pressure Visibility Wind Dir Wind Speed Gust Speed Precip Events Conditions
12:55 AM 59.0 °F 53.1 °F 81% 29.84 in 10.0 mi Calm Calm - N/A   Clear
1:55 AM 59.0 °F 52.0 °F 78% 29.84 in 10.0 mi Calm Calm - N/A   Clear
2:55 AM 57.9 °F 51.1 °F 78% 29.83 in 10.0 mi Calm Calm - N/A   Clear
3:55 AM 55.9 °F 48.9 °F 77% 29.83 in 10.0 mi Calm Calm - N/A   Clear
4:55 AM 55.0 °F 46.0 °F 72% 29.83 in 10.0 mi ENE 3.5 mph - N/A   Clear
5:55 AM 54.0 °F 43.0 °F 66% 29.84 in 10.0 mi Calm Calm - N/A   Clear
6:55 AM 54.0 °F 45.0 °F 72% 29.86 in 10.0 mi Calm Calm - N/A   Clear
7:55 AM 59.0 °F 48.0 °F 67% 29.88 in 10.0 mi Calm Calm - N/A   Clear
8:55 AM 66.0 °F 48.0 °F 52% 29.89 in 10.0 mi Calm Calm - N/A   Clear
9:55 AM 75.0 °F 46.9 °F 37% 29.88 in 10.0 mi SSW 3.5 mph - N/A   Clear
10:55 AM 78.1 °F 50.0 °F 37% 29.89 in 10.0 mi SSW 10.4 mph - N/A   Clear
11:55 AM 79.0 °F 52.0 °F 39% 29.89 in 10.0 mi SSW 9.2 mph - N/A   Clear
12:55 PM 81.0 °F 48.0 °F 31% 29.89 in 10.0 mi WSW 8.1 mph - N/A   Clear
1:55 PM 82.9 °F 46.0 °F 27% 29.87 in 10.0 mi West 8.1 mph - N/A   Clear
2:55 PM 84.0 °F 42.1 °F 23% 29.86 in 9.0 mi West 9.2 mph - N/A   Clear
3:55 PM 84.0 °F 45.0 °F 25% 29.86 in 10.0 mi West 6.9 mph - N/A   Clear
4:55 PM 79.0 °F 51.1 °F 38% 29.85 in 10.0 mi WSW 6.9 mph - N/A   Clear
5:55 PM 77.0 °F 50.0 °F 39% 29.86 in 10.0 mi SW 8.1 mph - N/A   Clear
6:55 PM 73.0 °F 45.0 °F 37% 29.86 in 10.0 mi WSW 3.5 mph - N/A   Clear
7:55 PM 70.0 °F 46.0 °F 42% 29.87 in 10.0 mi Calm Calm - N/A   Clear
8:55 PM 66.9 °F 50.0 °F 54% 29.89 in 10.0 mi Calm Calm - N/A   Clear
9:55 PM 66.9 °F 48.0 °F 51% 29.89 in 10.0 mi Calm Calm - N/A   Clear
10:55 PM 64.9 °F 48.0 °F 54% 29.89 in 10.0 mi Calm Calm - N/A   Clear
11:55 PM 62.1 °F 48.0 °F 60% 29.89 in 10.0 mi Calm Calm - N/A   Clear